[[{"header":{"parameterUnit":"m.s-1","parameterCategory":2,"la1":30.2991,"la2":30.254,"lo1":-89.0895,"lo2":-89.0444,"dy":0.0017,"dx":0.0017,"nx":28,"ny":28,"refTime":"2023-07-27T21:00:00:Z","depth":"0","parameterNumber":2,"parameterNumberName":"U-component_of_CURRENTS"},"data":[0,0,0,0,0,0,0,0,0,0,0,0,0,0,0,0,0,0,0,0,0,0,0,0,0,0,0,0,0,0,0,0,0,0,0,0,0,0,0,0,0,0,0,0,0,0,0,0,0,0,0,0,0,0,0,0,0,0,-0.1714,-0.1715,0,-0.1814,-0.1815,-0.1815,-0.184,-0.184,-0.1839,-0.1839,-0.1839,-0.184,-0.184,0,0,0,0,0,0,0,0,0,0,0,0,0,-0.158,-0.1582,-0.1714,-0.1715,-0.1717,-0.1814,-0.1815,-0.1816,-0.184,-0.184,-0.1839,-0.1839,-0.1839,-0.184,-0.184,0,0,0,0,0,0,0,0,0,0,0,0,0,-0.1651,-0.1582,-0.1714,-0.1743,-0.1747,-0.1813,-0.1815,-0.1816,-0.184,-0.184,-0.1839,-0.1839,-0.1839,-0.184,-0.184,-0.1853,0,0,-0.1842,-0.1842,0,0,0,0,0,0,0,0,-0.1647,-0.1656,-0.1737,-0.1741,-0.1746,-0.1817,-0.1768,-0.1825,-0.184,-0.1801,-0.1839,-0.1838,-0.1825,-0.1827,-0.1843,-0.1853,-0.1853,-0.1842,-0.1842,-0.1842,-0.1842,0,0,0,0,0,0,0,-0.1642,-0.1652,-0.175,-0.1739,-0.1744,-0.1764,-0.1773,-0.1779,-0.181,-0.1804,-0.1807,-0.1824,-0.1826,-0.1843,-0.1843,-0.1853,-0.1842,-0.1842,-0.1842,-0.1842,-0.1909,-0.191,0,0,0,0,0,0,-0.1636,-0.1647,-0.1747,-0.1753,-0.1698,-0.1767,-0.1777,-0.1792,-0.1812,-0.1817,-0.1825,-0.1825,-0.1842,-0.1843,-0.1843,-0.1852,-0.1842,-0.1843,-0.1843,-0.1908,-0.1909,-0.1911,0,0,0,0,0,0,-0.1633,-0.1644,-0.1743,-0.1705,-0.172,-0.177,-0.1787,-0.1794,-0.1809,-0.1829,-0.1831,-0.1831,-0.1842,-0.1842,-0.1854,-0.1852,-0.1843,-0.1843,-0.1906,-0.1908,-0.191,-0.1875,0,0,0,0,0,0,-0.1628,-0.1642,-0.1645,-0.1705,-0.1722,-0.1777,-0.1788,-0.1797,-0.1822,-0.1823,-0.1836,-0.1836,-0.1841,-0.1854,-0.1855,-0.1853,-0.1844,-0.1904,-0.1907,-0.1909,-0.1874,-0.1875,-0.1877,0,0,0,0,0,-0.1623,-0.1623,-0.1645,-0.1657,-0.1726,-0.1777,-0.1787,-0.1819,-0.1822,-0.1829,-0.1844,-0.1835,-0.1873,-0.1855,-0.1856,-0.1854,-0.1903,-0.1906,-0.1909,-0.1873,-0.1875,-0.1877,0,0,0,0,0,0,-0.1542,-0.1628,-0.1652,-0.1672,-0.1722,-0.1783,-0.179,-0.1818,-0.1837,-0.1832,-0.1845,-0.1847,-0.1862,-0.1872,-0.1852,-0.1889,-0.189,-0.1893,-0.1862,-0.1864,-0.1865,-0.184,-0.1844,0,0,0,0,0,-0.1534,-0.1569,-0.1643,-0.1656,-0.168,-0.1736,-0.1758,-0.1786,-0.1818,-0.1826,-0.1844,-0.1863,-0.188,-0.188,-0.1902,-0.1909,-0.1911,-0.1916,-0.1918,-0.1918,-0.1903,-0.1951,-0.1954,-0.1922,-0.1922,-0.1922,0,0,-0.1506,-0.1557,-0.1575,-0.1644,-0.168,-0.1713,-0.1746,-0.178,-0.18,-0.1821,-0.1841,-0.1867,-0.1888,-0.1905,-0.1912,-0.1905,-0.1921,-0.1922,-0.1922,-0.1907,-0.1954,-0.1957,-0.1959,-0.1924,-0.1924,-0.1923,0,0,-0.147,-0.1512,-0.1534,-0.1576,-0.1643,-0.1687,-0.1697,-0.1765,-0.1784,-0.1818,-0.1841,-0.1866,-0.1894,-0.191,-0.1919,-0.1941,-0.1934,-0.1955,-0.1926,-0.1972,-0.1974,-0.1976,-0.194,-0.1939,-0.1947,-0.1947,-0.1947,0,-0.1431,-0.1473,-0.1542,-0.1568,-0.16,-0.1673,-0.1693,-0.1727,-0.179,-0.1804,-0.1818,-0.188,-0.1895,-0.191,-0.1919,-0.1939,-0.1942,-0.1909,-0.197,-0.1973,-0.1975,-0.1938,-0.1938,-0.1946,-0.1946,-0.1946,-0.1946,0,-0.1423,-0.145,-0.1459,-0.153,-0.1568,-0.1597,-0.1666,-0.17,-0.174,-0.1776,-0.1813,-0.1852,-0.1882,-0.1902,-0.1908,-0.1936,-0.1921,-0.197,-0.1955,-0.1976,-0.1936,-0.1936,-0.1944,-0.1945,-0.1945,-0.1945,0,0,-0.1363,-0.1442,-0.1446,-0.1471,-0.1554,-0.1588,-0.162,-0.1679,-0.1694,-0.1754,-0.1772,-0.1815,-0.184,-0.1854,-0.1881,-0.1915,-0.1921,-0.194,-0.1943,-0.188,-0.1964,-0.1863,-0.1853,-0.1988,-0.1989,-0.199,-0.1911,0,-0.134,-0.1375,-0.1426,-0.1458,-0.1486,-0.1556,-0.1583,-0.1637,-0.1684,-0.172,-0.1764,-0.1791,-0.182,-0.1832,-0.1872,-0.1916,-0.1927,-0.1933,-0.1973,-0.1972,-0.1863,-0.1853,-0.1836,-0.1759,-0.1911,-0.1911,-0.1911,0,-0.1326,-0.1359,-0.1381,-0.144,-0.1457,-0.148,-0.1546,-0.1578,-0.1635,-0.1666,-0.1702,-0.1741,-0.1767,-0.1815,-0.1868,-0.1871,-0.1905,-0.1941,-0.1941,-0.1858,-0.1873,-0.1776,-0.1753,-0.1663,-0.1911,-0.1911,-0.1911,0,-0.1279,-0.1329,-0.1348,-0.1368,-0.1442,-0.1456,-0.1494,-0.1554,-0.1576,-0.1625,-0.1643,-0.169,-0.1711,-0.1777,-0.1819,-0.1855,-0.1876,-0.1941,-0.187,-0.186,-0.1856,-0.1844,-0.1734,-0.1989,-0.1989,-0.199,-0.199,0,-0.125,-0.1262,-0.1323,-0.1335,-0.1352,-0.1414,-0.1431,-0.1474,-0.1521,-0.154,-0.1602,-0.1623,-0.1716,-0.1738,-0.1792,-0.1788,-0.1847,-0.1837,-0.1842,-0.1838,-0.1826,-0.1757,-0.1733,-0.1987,-0.1987,-0.1988,-0.1988,0,-0.1192,-0.1232,-0.1253,-0.1314,-0.1329,-0.1338,-0.1388,-0.1401,-0.145,-0.1478,-0.1488,-0.1561,-0.1582,-0.1628,-0.1709,-0.1727,-0.1711,-0.1748,-0.1679,-0.1677,-0.1521,-0.1497,-0.1488,-0.1438,-0.1648,-0.1645,-0.1643,0,-0.1163,-0.1171,-0.1223,-0.1229,-0.1251,-0.1276,-0.1293,-0.1354,-0.1376,-0.1443,-0.1453,-0.1474,-0.1509,-0.1524,-0.1558,-0.1567,-0.1591,-0.1537,-0.1614,-0.1468,-0.1449,-0.1532,-0.1497,-0.158,-0.1578,-0.1575,-0.1574,0,-0.1107,-0.1125,-0.1143,-0.1158,-0.1173,-0.1192,-0.1225,-0.1232,-0.1307,-0.1343,-0.1392,-0.1422,-0.1442,-0.1458,-0.1432,-0.1447,-0.1469,-0.1488,-0.1404,-0.1414,-0.1439,-0.1406,-0.1612,-0.1554,-0.1556,-0.1557,-0.1558,-0.1559,-0.1051,-0.1046,-0.1068,-0.1074,-0.1096,-0.1104,-0.1084,-0.1142,-0.1169,-0.1217,-0.1312,-0.1339,-0.1396,-0.1377,-0.1334,-0.1227,-0.1322,-0.1231,-0.1216,-0.1314,-0.1261,-0.1353,-0.1266,-0.1266,-0.1266,-0.1267,-0.1267,0,-0.0977,-0.0981,-0.0985,-0.0989,-0.0987,-0.1022,-0.1034,-0.1013,-0.1029,-0.1107,-0.117,-0.1249,-0.1234,-0.1213,-0.1153,-0.1022,-0.1071,-0.0933,-0.1065,-0.1044,-0.1174,-0.1162,-0.0968,-0.0968,-0.0969,-0.0969,-0.0969,-0.0969,-0.0933,-0.0911,-0.0915,-0.0878,-0.0887,-0.0848,-0.0834,-0.083,-0.0851,-0.0899,-0.0956,-0.105,-0.1065,-0.1043,-0.0881,-0.083,-0.0786,-0.0784,-0.0733,-0.0818,-0.0846,-0.0873,-0.0854,-0.06,-0.06,-0.0666,-0.0666,-0.0665]},{"header":{"parameterUnit":"m.s-1","parameterCategory":2,"la1":30.2991,"la2":30.254,"lo1":-89.0895,"lo2":-89.0444,"dy":0.0017,"dx":0.0017,"nx":28,"ny":28,"refTime":"2023-07-27T21:00:00:Z","depth":"0","parameterNumber":3,"parameterNumberName":"V-component_of_CURRENTS"},"data":[0,0,0,0,0,0,0,0,0,0,0,0,0,0,0,0,0,0,0,0,0,0,0,0,0,0,0,0,0,0,0,0,0,0,0,0,0,0,0,0,0,0,0,0,0,0,0,0,0,0,0,0,0,0,0,0,0,0,-0.0919,-0.092,0,-0.1012,-0.1013,-0.1014,-0.104,-0.1039,-0.1039,-0.1039,-0.1107,-0.111,-0.1112,0,0,0,0,0,0,0,0,0,0,0,0,0,-0.0807,-0.0809,-0.0919,-0.092,-0.0922,-0.1012,-0.1013,-0.1014,-0.104,-0.1039,-0.1039,-0.1038,-0.1107,-0.1109,-0.1112,0,0,0,0,0,0,0,0,0,0,0,0,0,-0.0872,-0.0809,-0.0919,-0.0947,-0.095,-0.1012,-0.1013,-0.1014,-0.104,-0.1039,-0.1039,-0.1038,-0.1106,-0.1109,-0.1112,-0.1144,0,0,-0.1122,-0.1124,0,0,0,0,0,0,0,0,-0.0868,-0.0876,-0.0941,-0.0945,-0.0949,-0.1015,-0.0999,-0.1057,-0.104,-0.1004,-0.1039,-0.1038,-0.1076,-0.1081,-0.1098,-0.1147,-0.115,-0.1123,-0.1125,-0.1126,-0.1127,0,0,0,0,0,0,0,-0.0864,-0.0872,-0.0954,-0.0943,-0.0947,-0.0969,-0.0977,-0.101,-0.104,-0.1007,-0.101,-0.1023,-0.1077,-0.1095,-0.11,-0.1151,-0.1123,-0.1126,-0.1128,-0.1129,-0.1236,-0.1237,0,0,0,0,0,0,-0.0854,-0.0868,-0.0952,-0.0957,-0.0908,-0.0972,-0.098,-0.0993,-0.1041,-0.1048,-0.1023,-0.1024,-0.109,-0.1096,-0.1103,-0.1146,-0.1126,-0.1129,-0.1131,-0.1235,-0.1236,-0.1237,0,0,0,0,0,0,-0.0851,-0.086,-0.0948,-0.0916,-0.0929,-0.0974,-0.0988,-0.0995,-0.101,-0.1053,-0.106,-0.103,-0.109,-0.1098,-0.1146,-0.1148,-0.1131,-0.1134,-0.1234,-0.1236,-0.1237,-0.1231,0,0,0,0,0,0,-0.0848,-0.0859,-0.0864,-0.0915,-0.093,-0.0983,-0.0989,-0.0998,-0.102,-0.1021,-0.1062,-0.1068,-0.109,-0.1141,-0.1149,-0.1153,-0.1136,-0.1233,-0.1235,-0.1236,-0.123,-0.1232,-0.1233,0,0,0,0,0,-0.0843,-0.0862,-0.0863,-0.0873,-0.0935,-0.0983,-0.0993,-0.1022,-0.1021,-0.1031,-0.1068,-0.1066,-0.1156,-0.1145,-0.1154,-0.1159,-0.1232,-0.1234,-0.1236,-0.1229,-0.1231,-0.1233,0,0,0,0,0,0,-0.083,-0.0868,-0.087,-0.0902,-0.0934,-0.0988,-0.101,-0.102,-0.1057,-0.1058,-0.1089,-0.1099,-0.1139,-0.1155,-0.1141,-0.1195,-0.119,-0.1194,-0.1181,-0.1183,-0.1185,-0.1185,-0.1139,0,0,0,0,0,-0.0824,-0.0841,-0.0881,-0.0908,-0.0924,-0.0961,-0.0983,-0.0998,-0.1039,-0.1054,-0.1085,-0.1119,-0.1156,-0.1173,-0.1208,-0.1244,-0.1236,-0.125,-0.1251,-0.1253,-0.126,-0.1254,-0.1255,-0.1244,-0.1244,-0.1244,0,0,-0.0831,-0.0852,-0.0864,-0.0904,-0.0935,-0.0967,-0.0973,-0.1008,-0.1035,-0.1057,-0.1106,-0.1129,-0.1168,-0.1209,-0.1227,-0.1222,-0.125,-0.1255,-0.1256,-0.1263,-0.1256,-0.1257,-0.1258,-0.1245,-0.1245,-0.1245,0,0,-0.0859,-0.0868,-0.0892,-0.0912,-0.0948,-0.0972,-0.0977,-0.1023,-0.1043,-0.109,-0.1112,-0.1142,-0.1197,-0.1227,-0.1248,-0.1282,-0.1261,-0.1282,-0.129,-0.1284,-0.1284,-0.1284,-0.1261,-0.1259,-0.128,-0.128,-0.128,0,-0.0866,-0.0896,-0.0909,-0.0935,-0.0955,-0.0972,-0.1001,-0.1031,-0.1084,-0.1108,-0.1104,-0.1184,-0.1209,-0.1261,-0.1272,-0.1284,-0.1269,-0.1276,-0.1284,-0.1284,-0.1284,-0.1261,-0.1259,-0.128,-0.128,-0.128,-0.128,0,-0.0913,-0.0928,-0.0949,-0.0979,-0.1,-0.1029,-0.106,-0.1086,-0.1103,-0.113,-0.1178,-0.1213,-0.1257,-0.1263,-0.1281,-0.13,-0.1283,-0.1285,-0.1272,-0.1285,-0.1259,-0.1257,-0.128,-0.128,-0.128,-0.128,0,0,-0.0946,-0.0975,-0.098,-0.0989,-0.1019,-0.1044,-0.1085,-0.1132,-0.1159,-0.1192,-0.1228,-0.1281,-0.1281,-0.1306,-0.1318,-0.1313,-0.1295,-0.1297,-0.1296,-0.1263,-0.1261,-0.1293,-0.1293,-0.1288,-0.1289,-0.1289,-0.1236,0,-0.0979,-0.1023,-0.1029,-0.1066,-0.1088,-0.1101,-0.1139,-0.1173,-0.1201,-0.1239,-0.1263,-0.13,-0.1303,-0.1311,-0.1311,-0.1303,-0.1293,-0.1308,-0.1265,-0.1264,-0.1281,-0.1294,-0.1348,-0.131,-0.1234,-0.1234,-0.1233,0,-0.1018,-0.1038,-0.1078,-0.1098,-0.111,-0.1132,-0.1176,-0.1211,-0.126,-0.1276,-0.1305,-0.132,-0.1338,-0.1325,-0.1312,-0.1317,-0.1293,-0.1276,-0.1274,-0.1308,-0.1293,-0.129,-0.1309,-0.1053,-0.123,-0.1231,-0.1231,0,-0.103,-0.1067,-0.1095,-0.1103,-0.1137,-0.1157,-0.118,-0.1225,-0.1259,-0.1293,-0.1308,-0.1329,-0.1332,-0.1314,-0.1295,-0.1293,-0.1263,-0.1255,-0.1261,-0.1261,-0.1305,-0.131,-0.1068,-0.1241,-0.1241,-0.1241,-0.1241,0,-0.1055,-0.1073,-0.11,-0.1114,-0.1144,-0.1163,-0.1206,-0.1229,-0.1271,-0.1313,-0.1322,-0.1347,-0.1325,-0.1317,-0.1292,-0.1276,-0.126,-0.1268,-0.1259,-0.1304,-0.131,-0.1089,-0.0847,-0.1239,-0.124,-0.124,-0.124,0,-0.1052,-0.1079,-0.1101,-0.1134,-0.1148,-0.1165,-0.1215,-0.1254,-0.1277,-0.1326,-0.1334,-0.1349,-0.1337,-0.1318,-0.128,-0.1274,-0.1111,-0.1248,-0.1298,-0.1297,-0.1082,-0.0838,-0.0609,-0.0496,-0.1245,-0.1246,-0.1246,0,-0.1046,-0.1064,-0.1103,-0.1122,-0.1134,-0.1171,-0.121,-0.1252,-0.1298,-0.1338,-0.1367,-0.1361,-0.139,-0.1346,-0.1351,-0.1324,-0.1081,-0.1313,-0.1337,-0.1075,-0.0795,-0.0688,-0.0601,-0.1375,-0.1376,-0.1377,-0.1378,0,-0.1024,-0.1044,-0.1062,-0.111,-0.1148,-0.1195,-0.1251,-0.1289,-0.1349,-0.1395,-0.144,-0.1457,-0.1456,-0.1479,-0.1441,-0.141,-0.1085,-0.1338,-0.1054,-0.0862,-0.0739,-0.0627,-0.1372,-0.1389,-0.1388,-0.1387,-0.1387,-0.1386,-0.0992,-0.0999,-0.1041,-0.1084,-0.1136,-0.1208,-0.1253,-0.1332,-0.1406,-0.1483,-0.15,-0.1563,-0.156,-0.1552,-0.145,-0.1249,-0.1134,-0.114,-0.0862,-0.0782,-0.0673,-0.1437,-0.1456,-0.1456,-0.1455,-0.1454,-0.1454,0,-0.0948,-0.098,-0.1019,-0.1082,-0.1145,-0.1181,-0.1276,-0.1331,-0.1427,-0.1539,-0.16,-0.1698,-0.1589,-0.1464,-0.124,-0.0865,-0.078,-0.0576,-0.0396,-0.033,-0.1025,-0.1035,-0.0979,-0.0979,-0.0979,-0.098,-0.098,-0.098,-0.0929,-0.0959,-0.0993,-0.1076,-0.1127,-0.121,-0.1261,-0.1353,-0.1454,-0.1611,-0.1743,-0.1816,-0.1504,-0.0822,-0.0317,-0.0203,0.0206,0.0256,0.0509,0.0101,0.0069,0.0038,0.0078,0.0366,0.0369,0.0996,0.1004,0.1011]}],[{"header":{"parameterUnit":"m.s-1","parameterCategory":2,"la1":30.2991,"la2":30.254,"lo1":-89.0895,"lo2":-89.0444,"dy":0.0017,"dx":0.0017,"nx":28,"ny":28,"refTime":"2023-07-27T21:00:00:Z","depth":"2","parameterNumber":2,"parameterNumberName":"U-component_of_CURRENTS"},"data":[0,0,0,0,0,0,0,0,0,0,0,0,0,0,0,0,0,0,0,0,0,0,0,0,0,0,0,0,0,0,0,0,0,0,0,0,0,0,0,0,0,0,0,0,0,0,0,0,0,0,0,0,0,0,0,0,0,0,-0.2736,-0.2735,0,-0.2673,-0.2673,-0.2672,-0.2653,-0.2653,-0.2653,-0.2654,-0.2545,-0.2542,-0.2539,0,0,0,0,0,0,0,0,0,0,0,0,0,-0.2784,-0.2783,-0.2736,-0.2735,-0.2734,-0.2674,-0.2673,-0.2672,-0.2653,-0.2653,-0.2653,-0.2654,-0.2546,-0.2543,-0.2539,0,0,0,0,0,0,0,0,0,0,0,0,0,-0.2748,-0.2783,-0.2736,-0.2716,-0.2714,-0.2674,-0.2673,-0.2672,-0.2653,-0.2653,-0.2653,-0.2654,-0.2547,-0.2543,-0.2538,-0.2504,0,0,-0.2524,-0.2522,0,0,0,0,0,0,0,0,-0.275,-0.2746,-0.272,-0.2717,-0.2715,-0.267,-0.265,-0.2613,-0.2653,-0.2677,-0.2654,-0.2654,-0.2582,-0.2574,-0.2564,-0.2499,-0.2495,-0.2524,-0.2521,-0.2519,-0.2518,0,0,0,0,0,0,0,-0.2752,-0.2748,-0.2712,-0.2719,-0.2716,-0.2692,-0.2688,-0.2643,-0.2629,-0.2675,-0.2673,-0.2664,-0.258,-0.2569,-0.2562,-0.2493,-0.2524,-0.252,-0.2517,-0.2515,-0.2359,-0.2358,0,0,0,0,0,0,-0.276,-0.2751,-0.2714,-0.271,-0.2732,-0.2691,-0.2686,-0.2685,-0.263,-0.2622,-0.2664,-0.2664,-0.2577,-0.2567,-0.2558,-0.2476,-0.2519,-0.2515,-0.2512,-0.2361,-0.2359,-0.2358,0,0,0,0,0,0,-0.2761,-0.2758,-0.2717,-0.2728,-0.2721,-0.269,-0.2689,-0.2684,-0.2663,-0.2622,-0.2613,-0.2647,-0.2576,-0.2564,-0.2508,-0.2473,-0.2513,-0.2509,-0.2362,-0.236,-0.2358,-0.2337,0,0,0,0,0,0,-0.2763,-0.2759,-0.2756,-0.2729,-0.272,-0.2694,-0.2688,-0.2682,-0.2657,-0.2655,-0.2604,-0.2596,-0.2576,-0.2515,-0.2504,-0.2468,-0.2505,-0.2364,-0.2361,-0.2359,-0.234,-0.2335,-0.2331,0,0,0,0,0,-0.2765,-0.2761,-0.2757,-0.2752,-0.272,-0.2693,-0.2687,-0.2666,-0.2656,-0.2648,-0.2608,-0.2597,-0.2491,-0.2511,-0.2497,-0.2459,-0.2365,-0.2362,-0.2359,-0.2342,-0.2336,-0.2331,0,0,0,0,0,0,-0.2774,-0.2757,-0.2752,-0.2742,-0.272,-0.269,-0.2671,-0.2659,-0.2621,-0.261,-0.2578,-0.2565,-0.2503,-0.2484,-0.2507,-0.2407,-0.2426,-0.242,-0.2417,-0.2411,-0.2407,-0.2419,-0.2501,0,0,0,0,0,-0.2776,-0.277,-0.2749,-0.2737,-0.2725,-0.2696,-0.2679,-0.2664,-0.2629,-0.2613,-0.2571,-0.2525,-0.248,-0.2451,-0.241,-0.2352,-0.2345,-0.2319,-0.2315,-0.2311,-0.2312,-0.2312,-0.2309,-0.2347,-0.2347,-0.2347,0,0,-0.2772,-0.2763,-0.2757,-0.2738,-0.2715,-0.2689,-0.2686,-0.2655,-0.2625,-0.2604,-0.2539,-0.2504,-0.2462,-0.2401,-0.2371,-0.238,-0.2283,-0.2307,-0.2304,-0.2307,-0.2309,-0.2305,-0.2302,-0.2345,-0.2346,-0.2346,0,0,-0.2751,-0.2754,-0.2735,-0.272,-0.2687,-0.2674,-0.2664,-0.2623,-0.2598,-0.2535,-0.2514,-0.2471,-0.2383,-0.2362,-0.2337,-0.2283,-0.2262,-0.2252,-0.2233,-0.2233,-0.2231,-0.2229,-0.2167,-0.216,-0.2248,-0.2248,-0.2248,0,-0.275,-0.2719,-0.2724,-0.2697,-0.2675,-0.2666,-0.2631,-0.2609,-0.2551,-0.2527,-0.2508,-0.2405,-0.2369,-0.2319,-0.2291,-0.2273,-0.2247,-0.226,-0.223,-0.2228,-0.2226,-0.2164,-0.2156,-0.2247,-0.2247,-0.2247,-0.2247,0,-0.2706,-0.2682,-0.2666,-0.2636,-0.2622,-0.2588,-0.2567,-0.254,-0.2502,-0.2475,-0.2408,-0.2366,-0.2306,-0.2285,-0.226,-0.2221,-0.2194,-0.2228,-0.2251,-0.2221,-0.2156,-0.2148,-0.2245,-0.2245,-0.2245,-0.2246,0,0,-0.2687,-0.2645,-0.2636,-0.2611,-0.2582,-0.2566,-0.2529,-0.2492,-0.2468,-0.241,-0.2368,-0.2292,-0.2272,-0.2244,-0.2218,-0.2214,-0.2155,-0.2201,-0.2202,-0.2149,-0.2098,-0.1982,-0.1962,-0.2185,-0.2185,-0.2185,-0.204,0,-0.264,-0.2588,-0.2577,-0.2523,-0.249,-0.2487,-0.2457,-0.2432,-0.2403,-0.2366,-0.2336,-0.2277,-0.2256,-0.2215,-0.2207,-0.2188,-0.2141,-0.2188,-0.2125,-0.2122,-0.2033,-0.1953,-0.184,-0.1694,-0.2033,-0.2032,-0.2031,0,-0.2575,-0.2556,-0.2493,-0.2463,-0.2449,-0.2417,-0.2388,-0.2359,-0.2335,-0.2308,-0.2272,-0.2248,-0.2206,-0.2202,-0.2144,-0.217,-0.2108,-0.2096,-0.2091,-0.1992,-0.1993,-0.1786,-0.1668,-0.2018,-0.2019,-0.202,-0.2021,0,-0.2533,-0.2488,-0.2438,-0.2423,-0.2395,-0.2361,-0.2343,-0.2324,-0.2307,-0.2266,-0.2248,-0.2213,-0.2169,-0.2143,-0.2069,-0.2104,-0.2007,-0.2064,-0.1889,-0.1878,-0.1774,-0.1755,-0.1995,-0.1995,-0.1995,-0.1996,-0.1996,0,-0.2469,-0.2424,-0.2409,-0.2377,-0.2329,-0.232,-0.2272,-0.2256,-0.2243,-0.2223,-0.2201,-0.2176,-0.2153,-0.2094,-0.2053,-0.1917,-0.1978,-0.1852,-0.1834,-0.1755,-0.1737,-0.2034,-0.2041,-0.199,-0.1992,-0.1993,-0.1994,0,-0.2395,-0.2384,-0.233,-0.2305,-0.2292,-0.225,-0.2228,-0.2208,-0.2196,-0.2174,-0.2153,-0.2127,-0.2036,-0.198,-0.1912,-0.1857,-0.1779,-0.1701,-0.1567,-0.1535,-0.1652,-0.1659,-0.1516,-0.151,-0.1506,-0.1502,-0.1499,0,-0.2338,-0.23,-0.2276,-0.2245,-0.2213,-0.2174,-0.2149,-0.216,-0.2154,-0.2145,-0.213,-0.2033,-0.1933,-0.1761,-0.1649,-0.1498,-0.1599,-0.1309,-0.1367,-0.1605,-0.1603,-0.1617,-0.163,-0.1199,-0.1194,-0.119,-0.1186,0,-0.2226,-0.2218,-0.2186,-0.2143,-0.2104,-0.2093,-0.2064,-0.2076,-0.2095,-0.2066,-0.2013,-0.193,-0.1731,-0.152,-0.1301,-0.1222,-0.1341,-0.1213,-0.1496,-0.1343,-0.1297,-0.1299,-0.1323,-0.1147,-0.1151,-0.1154,-0.1156,-0.1158,-0.2127,-0.2089,-0.2052,-0.2004,-0.1991,-0.1981,-0.195,-0.1959,-0.1935,-0.184,-0.1839,-0.1625,-0.1507,-0.1107,-0.1006,-0.0922,-0.1022,-0.0991,-0.1009,-0.1031,-0.1025,-0.0975,-0.0759,-0.076,-0.0762,-0.0763,-0.0764,0,-0.199,-0.1947,-0.1908,-0.1863,-0.184,-0.1861,-0.1864,-0.1813,-0.1758,-0.1631,-0.1489,-0.1166,-0.0966,-0.0882,-0.0702,-0.0635,-0.0673,-0.0607,-0.0696,-0.0732,-0.0765,-0.0753,-0.041,-0.0409,-0.0409,-0.0408,0,0,-0.1893,-0.1811,-0.1805,-0.1712,-0.1692,-0.1636,-0.1626,-0.1544,-0.1445,-0.1204,-0.1021,-0.0875,-0.0851,-0.0638,-0.0564,-0.0491,-0.0614,-0.0443,-0.072,-0.0862,-0.0895,-0.0963,-0.098,0,0,0,0,0]},{"header":{"parameterUnit":"m.s-1","parameterCategory":2,"la1":30.2991,"la2":30.254,"lo1":-89.0895,"lo2":-89.0444,"dy":0.0017,"dx":0.0017,"nx":28,"ny":28,"refTime":"2023-07-27T21:00:00:Z","depth":"2","parameterNumber":3,"parameterNumberName":"V-component_of_CURRENTS"},"data":[0,0,0,0,0,0,0,0,0,0,0,0,0,0,0,0,0,0,0,0,0,0,0,0,0,0,0,0,0,0,0,0,0,0,0,0,0,0,0,0,0,0,0,0,0,0,0,0,0,0,0,0,0,0,0,0,0,0,0.0492,0.0494,0,0.0627,0.0628,0.0629,0.0762,0.0764,0.0766,0.0767,0.1111,0.1118,0.1125,0,0,0,0,0,0,0,0,0,0,0,0,0,0.0302,0.0305,0.0492,0.0494,0.0496,0.0626,0.0628,0.063,0.0761,0.0764,0.0766,0.0768,0.1109,0.1117,0.1126,0,0,0,0,0,0,0,0,0,0,0,0,0,0.0404,0.0306,0.0492,0.0579,0.0588,0.0626,0.0628,0.063,0.0761,0.0764,0.0767,0.0769,0.1106,0.1116,0.1127,0.1139,0,0,0.1161,0.1166,0,0,0,0,0,0,0,0,0.0398,0.0411,0.0564,0.0573,0.0583,0.0682,0.0687,0.0811,0.076,0.0693,0.0767,0.0771,0.0986,0.1007,0.1021,0.1155,0.117,0.1162,0.1169,0.1174,0.1177,0,0,0,0,0,0,0,0.0391,0.0405,0.0544,0.0566,0.0577,0.0595,0.0612,0.071,0.0825,0.07,0.071,0.0726,0.0993,0.1009,0.103,0.1175,0.1162,0.1172,0.1179,0.1183,0.1455,0.1455,0,0,0,0,0,0,0.0378,0.0399,0.054,0.0548,0.0498,0.0596,0.0616,0.0646,0.082,0.0847,0.0724,0.0732,0.0989,0.1017,0.1043,0.117,0.1174,0.1184,0.119,0.1454,0.1455,0.1456,0,0,0,0,0,0,0.0373,0.0389,0.0534,0.0477,0.0497,0.0597,0.0629,0.0647,0.0707,0.0836,0.0868,0.0771,0.0992,0.1028,0.1168,0.1182,0.1189,0.1199,0.1454,0.1455,0.1455,0.136,0,0,0,0,0,0,0.0367,0.0387,0.0417,0.0476,0.05,0.0586,0.0627,0.0648,0.0711,0.0725,0.0886,0.0918,0.0997,0.115,0.1179,0.1197,0.1208,0.1453,0.1454,0.1455,0.1363,0.1358,0.1353,0,0,0,0,0,0.036,0.0384,0.0417,0.0435,0.0534,0.0587,0.0602,0.0679,0.0711,0.0742,0.0852,0.0916,0.1177,0.116,0.1193,0.1215,0.1452,0.1454,0.1455,0.1365,0.1359,0.1354,0,0,0,0,0,0,0.0313,0.0401,0.0439,0.049,0.0549,0.0612,0.0643,0.0689,0.0791,0.0815,0.0936,0.0975,0.1096,0.117,0.1148,0.1295,0.132,0.1328,0.124,0.1236,0.1231,0.1206,0.1217,0,0,0,0,0,0.0314,0.036,0.0438,0.0477,0.0506,0.0576,0.0612,0.0661,0.0748,0.0795,0.0903,0.1016,0.1114,0.119,0.1285,0.1377,0.1389,0.1408,0.1404,0.1399,0.14,0.1421,0.1417,0.146,0.146,0.146,0,0,0.03,0.0358,0.0383,0.0471,0.0517,0.0557,0.0606,0.0659,0.0705,0.0818,0.0924,0.1011,0.1135,0.123,0.129,0.1306,0.1386,0.1401,0.1396,0.14,0.1421,0.1417,0.1413,0.1461,0.1461,0.1461,0,0,0.0281,0.0351,0.0381,0.0431,0.051,0.0554,0.0575,0.0656,0.0714,0.0809,0.0895,0.0995,0.115,0.1232,0.1294,0.1326,0.1356,0.1354,0.1324,0.1342,0.1338,0.1335,0.13,0.1294,0.1357,0.1357,0.1357,0,0.0271,0.0324,0.0394,0.0432,0.0475,0.0553,0.0586,0.0642,0.0761,0.081,0.0842,0.104,0.1146,0.1258,0.1263,0.1317,0.1307,0.133,0.1332,0.133,0.1328,0.1293,0.1288,0.1353,0.1353,0.1354,0.1354,0,0.0264,0.0322,0.0338,0.0421,0.047,0.0511,0.0593,0.0652,0.0719,0.078,0.0901,0.1019,0.1138,0.1175,0.1235,0.1283,0.1269,0.1313,0.1334,0.1317,0.1282,0.1278,0.1346,0.1348,0.1349,0.135,0,0,0.0219,0.0319,0.033,0.0368,0.0474,0.0505,0.0577,0.0666,0.0709,0.0814,0.0873,0.1024,0.1073,0.1144,0.1224,0.1245,0.1209,0.1263,0.1266,0.1205,0.1196,0.1164,0.1157,0.124,0.124,0.124,0.1158,0,0.0207,0.0259,0.0322,0.0377,0.0415,0.0506,0.0562,0.0647,0.0727,0.0798,0.091,0.0999,0.1067,0.1111,0.1145,0.121,0.1203,0.1225,0.1243,0.1243,0.12,0.1155,0.1096,0.1017,0.1155,0.1154,0.1154,0,0.0189,0.0234,0.0277,0.0369,0.0393,0.0426,0.0524,0.0586,0.07,0.076,0.0855,0.094,0.1025,0.106,0.1133,0.1137,0.1151,0.1178,0.1177,0.1185,0.1207,0.107,0.1006,0.1148,0.1149,0.1149,0.115,0,0.012,0.0208,0.0239,0.0271,0.0375,0.0405,0.046,0.0569,0.0624,0.0727,0.0759,0.088,0.0927,0.0984,0.106,0.1087,0.109,0.1145,0.1119,0.1115,0.1091,0.1085,0.1155,0.1155,0.1155,0.1155,0.1156,0,0.0094,0.0124,0.0201,0.0219,0.0249,0.034,0.0383,0.0457,0.0551,0.0596,0.0724,0.0751,0.0906,0.0947,0.101,0.1039,0.1053,0.1092,0.1097,0.1052,0.1044,0.1202,0.1209,0.1152,0.1153,0.1153,0.1154,0,0.0026,0.0082,0.0114,0.0196,0.0217,0.0232,0.0323,0.0358,0.0447,0.05,0.0527,0.0643,0.069,0.0814,0.0889,0.0961,0.1005,0.1002,0.0912,0.0909,0.1019,0.1023,0.0968,0.0966,0.0965,0.0964,0.0963,0,-0.0,0.0007,0.0066,0.0076,0.0111,0.015,0.0184,0.0291,0.0329,0.0418,0.0426,0.049,0.0494,0.0587,0.0737,0.0819,0.09,0.0837,0.0907,0.0992,0.1003,0.1008,0.1013,0.0811,0.0809,0.0807,0.0806,0,-0.0053,-0.004,-0.0017,-0.0001,0.0021,0.0054,0.0104,0.0113,0.0229,0.0231,0.0221,0.021,0.0322,0.0408,0.0566,0.062,0.0834,0.0803,0.0913,0.088,0.0842,0.0854,0.0864,0.079,0.0792,0.0793,0.0794,0.0794,-0.0101,-0.0108,-0.0084,-0.007,-0.0049,-0.0034,-0.0024,0.0003,0.0001,0.002,0.0015,0.002,0.0152,0.0341,0.0454,0.0648,0.0674,0.0752,0.0759,0.0767,0.0776,0.074,0.0666,0.0667,0.0667,0.0668,0.0668,0,-0.0152,-0.0143,-0.0142,-0.0124,-0.0128,-0.0083,-0.0061,-0.0093,-0.0144,-0.0104,-0.0157,-0.0089,0.0018,0.0233,0.0498,0.0606,0.0618,0.0644,0.0665,0.0677,0.0688,0.0697,0.0564,0.0564,0.0565,0.0565,0,0,-0.0175,-0.019,-0.0184,-0.0197,-0.0179,-0.017,-0.0164,-0.026,-0.0244,-0.0301,-0.0225,-0.0209,0.0038,0.0203,0.0334,0.0497,0.0559,0.049,0.0552,0.0569,0.058,0.0716,0.0738,0,0,0,0,0]}],[{"header":{"parameterUnit":"m.s-1","parameterCategory":2,"la1":30.2991,"la2":30.254,"lo1":-89.0895,"lo2":-89.0444,"dy":0.0017,"dx":0.0017,"nx":28,"ny":28,"refTime":"2023-07-27T21:00:00:Z","depth":"4","parameterNumber":2,"parameterNumberName":"U-component_of_CURRENTS"},"data":[0,0,0,0,0,0,0,0,0,0,0,0,0,0,0,0,0,0,0,0,0,0,0,0,0,0,0,0,0,0,0,0,0,0,0,0,0,0,0,0,0,0,0,0,0,0,0,0,0,0,0,0,0,0,0,0,0,0,-0.0981,-0.0982,0,-0.1054,-0.1055,-0.1056,-0.1084,-0.1084,-0.1084,-0.1084,-0.123,-0.1234,-0.1238,0,0,0,0,0,0,0,0,0,0,0,0,0,-0.0911,-0.0911,-0.0981,-0.0982,-0.0983,-0.1054,-0.1055,-0.1056,-0.1084,-0.1084,-0.1084,-0.1084,-0.1229,-0.1234,-0.1239,0,0,0,0,0,0,0,0,0,0,0,0,0,-0.0957,-0.0912,-0.0981,-0.1007,-0.101,-0.1054,-0.1055,-0.1056,-0.1084,-0.1084,-0.1084,-0.1083,-0.1228,-0.1233,-0.1239,-0.1279,0,0,-0.1258,-0.126,0,0,0,0,0,0,0,0,-0.0954,-0.0959,-0.1002,-0.1005,-0.1009,-0.1061,-0.1084,-0.1135,-0.1084,-0.1054,-0.1084,-0.1083,-0.1182,-0.1191,-0.1202,-0.1286,-0.1292,-0.1258,-0.1262,-0.1264,-0.1266,0,0,0,0,0,0,0,-0.0951,-0.0956,-0.1009,-0.1003,-0.1007,-0.103,-0.1036,-0.1094,-0.1118,-0.1057,-0.1059,-0.107,-0.1184,-0.1196,-0.1206,-0.1294,-0.1258,-0.1263,-0.1267,-0.1269,-0.1458,-0.146,0,0,0,0,0,0,-0.0943,-0.0953,-0.1007,-0.1011,-0.0982,-0.1031,-0.1038,-0.1043,-0.1116,-0.1127,-0.107,-0.1071,-0.1186,-0.1199,-0.1212,-0.1294,-0.1264,-0.127,-0.1273,-0.1457,-0.1459,-0.146,0,0,0,0,0,0,-0.0941,-0.0946,-0.1004,-0.0985,-0.0994,-0.1033,-0.1039,-0.1045,-0.1074,-0.1125,-0.1137,-0.1095,-0.1187,-0.1203,-0.1278,-0.1299,-0.1273,-0.1278,-0.1455,-0.1458,-0.146,-0.1439,0,0,0,0,0,0,-0.0938,-0.0945,-0.0956,-0.0985,-0.0995,-0.103,-0.1039,-0.1046,-0.1081,-0.1083,-0.1151,-0.1163,-0.1188,-0.1269,-0.1284,-0.1307,-0.1283,-0.1453,-0.1456,-0.1459,-0.1438,-0.1441,-0.1443,0,0,0,0,0,-0.0935,-0.0947,-0.0955,-0.0963,-0.1005,-0.1031,-0.1038,-0.1064,-0.1082,-0.1092,-0.1146,-0.1162,-0.1296,-0.1275,-0.1292,-0.1317,-0.1452,-0.1456,-0.1459,-0.1437,-0.144,-0.1443,0,0,0,0,0,0,-0.0923,-0.0952,-0.0962,-0.0982,-0.1005,-0.1036,-0.1057,-0.1076,-0.1126,-0.1139,-0.1186,-0.1202,-0.1271,-0.1305,-0.128,-0.1381,-0.1375,-0.1382,-0.1353,-0.1356,-0.1359,-0.1355,-0.1288,0,0,0,0,0,-0.0925,-0.0941,-0.0968,-0.0985,-0.1,-0.1033,-0.1053,-0.1069,-0.1112,-0.1133,-0.1185,-0.1244,-0.1296,-0.1334,-0.1382,-0.1447,-0.1451,-0.1474,-0.1476,-0.1478,-0.1488,-0.1511,-0.1515,-0.1471,-0.1471,-0.1471,0,0,-0.0922,-0.0945,-0.0952,-0.0985,-0.1009,-0.1025,-0.1045,-0.1076,-0.1099,-0.1145,-0.1209,-0.1256,-0.1315,-0.1376,-0.141,-0.141,-0.1488,-0.1482,-0.1483,-0.1493,-0.1515,-0.1519,-0.1522,-0.1473,-0.1473,-0.1472,0,0,-0.0927,-0.0949,-0.0963,-0.0984,-0.1022,-0.1035,-0.1047,-0.109,-0.1122,-0.1187,-0.1219,-0.1275,-0.1373,-0.1402,-0.1434,-0.1483,-0.1495,-0.151,-0.1526,-0.1547,-0.1551,-0.1554,-0.1534,-0.1535,-0.1516,-0.1516,-0.1516,0,-0.0926,-0.0946,-0.0972,-0.0993,-0.1011,-0.104,-0.1054,-0.1088,-0.1152,-0.1184,-0.1208,-0.1338,-0.1379,-0.1445,-0.1463,-0.1485,-0.1495,-0.1505,-0.1547,-0.1551,-0.1554,-0.1533,-0.1535,-0.1515,-0.1515,-0.1515,-0.1515,0,-0.0934,-0.0957,-0.0971,-0.0999,-0.1019,-0.1039,-0.1077,-0.1111,-0.1158,-0.1194,-0.1284,-0.1349,-0.1421,-0.1446,-0.1478,-0.153,-0.1526,-0.1538,-0.1531,-0.1557,-0.1533,-0.1535,-0.1514,-0.1514,-0.1515,-0.1515,0,0,-0.0918,-0.0964,-0.0973,-0.0984,-0.1025,-0.1035,-0.1078,-0.1119,-0.1148,-0.1232,-0.1281,-0.1383,-0.1422,-0.1462,-0.1506,-0.1542,-0.1557,-0.1563,-0.1564,-0.1526,-0.1587,-0.1446,-0.1435,-0.1587,-0.1588,-0.1589,-0.1548,0,-0.0919,-0.0942,-0.0974,-0.0994,-0.1003,-0.1043,-0.1078,-0.1121,-0.117,-0.1222,-0.1306,-0.1376,-0.1427,-0.147,-0.1513,-0.1551,-0.157,-0.1566,-0.1584,-0.1584,-0.1442,-0.1435,-0.1592,-0.155,-0.155,-0.1551,-0.1551,0,-0.0919,-0.0933,-0.095,-0.0986,-0.0998,-0.1014,-0.1056,-0.1097,-0.1169,-0.1218,-0.1296,-0.1358,-0.1436,-0.1472,-0.1549,-0.1552,-0.1573,-0.1598,-0.1597,-0.1479,-0.1448,-0.1531,-0.1555,-0.1554,-0.1554,-0.1554,-0.1554,0,-0.0876,-0.0919,-0.0926,-0.0939,-0.0983,-0.1006,-0.1034,-0.1095,-0.1132,-0.1214,-0.1245,-0.1346,-0.139,-0.1462,-0.1518,-0.1546,-0.1575,-0.1602,-0.1488,-0.1477,-0.1625,-0.1623,-0.1643,-0.1643,-0.1643,-0.1643,-0.1643,0,-0.0853,-0.0866,-0.0907,-0.0909,-0.0922,-0.0977,-0.1002,-0.1048,-0.1115,-0.1134,-0.1244,-0.1264,-0.1398,-0.1432,-0.1495,-0.1475,-0.1547,-0.148,-0.146,-0.1614,-0.1611,-0.1624,-0.1622,-0.1641,-0.1642,-0.1642,-0.1642,0,-0.0808,-0.0835,-0.0847,-0.0891,-0.09,-0.0914,-0.0966,-0.0987,-0.1063,-0.1085,-0.1117,-0.1203,-0.1239,-0.1332,-0.1406,-0.1404,-0.1427,-0.1401,-0.1519,-0.1509,-0.1322,-0.132,-0.1269,-0.1264,-0.126,-0.1256,-0.1253,0,-0.0786,-0.0788,-0.0818,-0.0815,-0.0836,-0.086,-0.0875,-0.0951,-0.0961,-0.1025,-0.1019,-0.1074,-0.1121,-0.1109,-0.1214,-0.1275,-0.1289,-0.1277,-0.1346,-0.1299,-0.1286,-0.1291,-0.1295,-0.1246,-0.1245,-0.1244,-0.1242,0,-0.0745,-0.0766,-0.0773,-0.0761,-0.0768,-0.0768,-0.0787,-0.078,-0.0851,-0.0921,-0.0906,-0.0939,-0.0945,-0.1012,-0.1047,-0.1107,-0.128,-0.1232,-0.1243,-0.1308,-0.127,-0.1262,-0.1272,-0.1227,-0.1229,-0.1231,-0.1232,0,-0.0725,-0.0714,-0.072,-0.0705,-0.0702,-0.0667,-0.0688,-0.0688,-0.071,-0.0783,-0.0754,-0.0831,-0.0893,-0.0918,-0.0956,-0.0988,-0.1012,-0.1023,-0.1046,-0.1064,-0.1022,-0.0946,-0.0773,0,0,0,0,0,-0.0695,-0.0669,-0.0657,-0.0619,-0.0614,-0.0603,-0.0624,-0.0653,-0.0694,-0.0659,-0.0712,-0.0722,-0.0763,-0.0803,-0.0805,-0.0882,-0.1021,-0.088,-0.1046,-0.1142,-0.1159,-0.1134,0,0,0,0,0,0,-0.0668,-0.0657,-0.0637,-0.0552,-0.0509,-0.0486,-0.0493,-0.0529,-0.0515,-0.0574,-0.0607,-0.0664,-0.0727,-0.075,-0.0784,-0.0799,-0.0888,-0.0933,-0.0931,-0.1132,-0.1148,-0.1162,-0.1143,0,0,0,0,0]},{"header":{"parameterUnit":"m.s-1","parameterCategory":2,"la1":30.2991,"la2":30.254,"lo1":-89.0895,"lo2":-89.0444,"dy":0.0017,"dx":0.0017,"nx":28,"ny":28,"refTime":"2023-07-27T21:00:00:Z","depth":"4","parameterNumber":3,"parameterNumberName":"V-component_of_CURRENTS"},"data":[0,0,0,0,0,0,0,0,0,0,0,0,0,0,0,0,0,0,0,0,0,0,0,0,0,0,0,0,0,0,0,0,0,0,0,0,0,0,0,0,0,0,0,0,0,0,0,0,0,0,0,0,0,0,0,0,0,0,-0.0454,-0.0454,0,-0.0465,-0.0465,-0.0466,-0.0476,-0.0476,-0.0476,-0.0475,-0.0436,-0.0436,-0.0435,0,0,0,0,0,0,0,0,0,0,0,0,0,-0.0452,-0.0452,-0.0454,-0.0454,-0.0454,-0.0465,-0.0465,-0.0466,-0.0476,-0.0476,-0.0476,-0.0475,-0.0437,-0.0436,-0.0435,0,0,0,0,0,0,0,0,0,0,0,0,0,-0.0461,-0.0452,-0.0454,-0.0457,-0.0457,-0.0465,-0.0465,-0.0466,-0.0476,-0.0476,-0.0475,-0.0475,-0.0437,-0.0436,-0.0435,-0.0434,0,0,-0.0431,-0.043,0,0,0,0,0,0,0,0,-0.046,-0.0461,-0.0457,-0.0457,-0.0457,-0.0465,-0.045,-0.0451,-0.0476,-0.0473,-0.0475,-0.0475,-0.0439,-0.0438,-0.0447,-0.0432,-0.043,-0.0431,-0.043,-0.0429,-0.0429,0,0,0,0,0,0,0,-0.0459,-0.0461,-0.0463,-0.0457,-0.0457,-0.0461,-0.0462,-0.0451,-0.046,-0.0474,-0.0473,-0.0468,-0.0439,-0.0448,-0.0446,-0.043,-0.0431,-0.043,-0.0429,-0.0428,-0.0452,-0.0453,0,0,0,0,0,0,-0.045,-0.046,-0.0462,-0.0462,-0.0453,-0.0461,-0.0462,-0.0466,-0.0461,-0.046,-0.0468,-0.0469,-0.045,-0.0447,-0.0444,-0.0471,-0.0429,-0.0428,-0.0428,-0.045,-0.0452,-0.0454,0,0,0,0,0,0,-0.045,-0.0451,-0.0462,-0.0458,-0.0459,-0.0461,-0.0465,-0.0467,-0.0479,-0.0457,-0.0455,-0.048,-0.045,-0.0446,-0.0437,-0.0468,-0.0428,-0.0427,-0.0449,-0.0451,-0.0453,-0.0506,0,0,0,0,0,0,-0.045,-0.0451,-0.0459,-0.0457,-0.0459,-0.0475,-0.0465,-0.0467,-0.0474,-0.0475,-0.0466,-0.0462,-0.0449,-0.0439,-0.0435,-0.0466,-0.0426,-0.0447,-0.045,-0.0452,-0.0503,-0.051,-0.0516,0,0,0,0,0,-0.045,-0.0454,-0.0459,-0.0459,-0.0467,-0.0476,-0.0478,-0.048,-0.0475,-0.0489,-0.0475,-0.0463,-0.0454,-0.0438,-0.0434,-0.0465,-0.0446,-0.0449,-0.0452,-0.05,-0.0509,-0.0516,0,0,0,0,0,0,-0.0455,-0.0455,-0.0461,-0.0464,-0.0475,-0.0476,-0.0484,-0.0485,-0.0488,-0.0487,-0.0465,-0.0461,-0.0475,-0.0458,-0.0441,-0.0482,-0.0454,-0.0456,-0.0492,-0.05,-0.0506,-0.0503,-0.0425,0,0,0,0,0,-0.046,-0.0466,-0.0469,-0.0476,-0.0481,-0.0486,-0.0491,-0.0496,-0.0492,-0.0495,-0.0489,-0.0484,-0.0486,-0.048,-0.0483,-0.0488,-0.045,-0.0511,-0.0518,-0.0523,-0.052,-0.0491,-0.0494,-0.0464,-0.0464,-0.0464,0,0,-0.0463,-0.0463,-0.0468,-0.0478,-0.0486,-0.0506,-0.049,-0.0502,-0.0519,-0.0487,-0.0509,-0.0508,-0.0495,-0.0513,-0.0518,-0.0498,-0.0511,-0.0527,-0.0532,-0.0526,-0.0494,-0.0497,-0.0499,-0.0466,-0.0465,-0.0465,0,0,-0.0469,-0.0476,-0.0485,-0.0501,-0.0513,-0.052,-0.0526,-0.0538,-0.0545,-0.0556,-0.055,-0.0562,-0.0556,-0.0564,-0.0562,-0.0603,-0.0553,-0.0611,-0.0632,-0.0604,-0.0606,-0.0607,-0.0551,-0.0547,-0.0607,-0.0607,-0.0607,0,-0.0475,-0.0491,-0.049,-0.0509,-0.0527,-0.0529,-0.0555,-0.0563,-0.0574,-0.0581,-0.0569,-0.0591,-0.0584,-0.0606,-0.0624,-0.0619,-0.0576,-0.0601,-0.0611,-0.0611,-0.0611,-0.0554,-0.0548,-0.061,-0.0609,-0.0609,-0.0609,0,-0.0493,-0.0515,-0.0522,-0.0552,-0.0572,-0.0594,-0.0607,-0.0627,-0.0631,-0.0638,-0.0662,-0.0655,-0.0666,-0.0677,-0.0655,-0.0671,-0.0631,-0.0627,-0.0586,-0.0617,-0.0555,-0.0548,-0.0614,-0.0613,-0.0612,-0.0611,0,0,-0.0489,-0.0528,-0.0535,-0.0561,-0.0601,-0.0617,-0.0649,-0.0677,-0.0699,-0.0706,-0.0731,-0.0742,-0.074,-0.0737,-0.0729,-0.0702,-0.0667,-0.0659,-0.0656,-0.0595,-0.0572,-0.0515,-0.0501,-0.0654,-0.0653,-0.0653,-0.0523,0,-0.051,-0.0552,-0.0569,-0.0623,-0.0651,-0.0676,-0.0705,-0.0731,-0.0747,-0.0772,-0.0764,-0.079,-0.0761,-0.0775,-0.0743,-0.0703,-0.0653,-0.07,-0.0559,-0.0554,-0.0492,-0.0493,-0.0651,-0.0518,-0.0516,-0.0515,-0.0514,0,-0.0528,-0.0556,-0.0608,-0.0664,-0.0678,-0.0714,-0.0771,-0.0794,-0.0824,-0.0836,-0.0852,-0.0849,-0.0842,-0.0806,-0.0715,-0.0741,-0.0653,-0.06,-0.0594,-0.0516,-0.0485,-0.0484,-0.0501,-0.0502,-0.0503,-0.0504,-0.0505,0,-0.053,-0.0586,-0.0629,-0.0652,-0.0712,-0.0743,-0.0775,-0.0818,-0.0841,-0.0883,-0.0903,-0.0893,-0.0889,-0.0798,-0.0692,-0.07,-0.056,-0.0564,-0.0418,-0.0412,-0.0477,-0.0478,-0.0468,-0.0468,-0.0468,-0.0469,-0.0469,0,-0.0547,-0.0585,-0.0635,-0.0663,-0.0719,-0.0754,-0.0813,-0.0845,-0.0888,-0.0909,-0.0933,-0.0935,-0.0883,-0.0804,-0.0695,-0.0528,-0.0557,-0.0411,-0.0377,-0.0502,-0.0507,-0.0471,-0.0473,-0.0464,-0.0465,-0.0466,-0.0467,0,-0.0549,-0.0581,-0.0634,-0.0699,-0.0723,-0.0762,-0.0835,-0.087,-0.0911,-0.094,-0.0955,-0.0961,-0.086,-0.0768,-0.0623,-0.0529,-0.0387,-0.0308,-0.0426,-0.0403,-0.0251,-0.0258,-0.0148,-0.0145,-0.0142,-0.014,-0.0138,0,-0.0556,-0.0581,-0.0653,-0.0689,-0.0725,-0.0786,-0.0827,-0.088,-0.0902,-0.0932,-0.0928,-0.0883,-0.0855,-0.0609,-0.0519,-0.0309,-0.0271,-0.0199,-0.0245,-0.0241,-0.022,-0.0231,-0.024,-0.0134,-0.0133,-0.0133,-0.0132,0,-0.057,-0.0594,-0.0637,-0.0698,-0.0751,-0.0807,-0.0855,-0.0865,-0.0899,-0.0937,-0.0885,-0.0808,-0.0688,-0.0563,-0.0402,-0.0251,-0.0266,-0.0172,-0.0177,-0.022,-0.0223,-0.0207,-0.022,-0.0123,-0.0124,-0.0125,-0.0126,0,-0.0579,-0.0608,-0.0656,-0.0707,-0.077,-0.0806,-0.0836,-0.0839,-0.0856,-0.0861,-0.083,-0.0748,-0.0717,-0.0525,-0.0371,-0.0235,-0.0203,-0.0166,-0.0171,-0.018,-0.0239,-0.0252,-0.012,0,0,0,0,0,-0.0585,-0.0612,-0.0662,-0.0718,-0.0774,-0.0807,-0.0844,-0.0861,-0.0869,-0.0815,-0.082,-0.07,-0.0518,-0.0466,-0.031,-0.0323,-0.0184,-0.0137,-0.0146,-0.0074,-0.0084,-0.0145,0,0,0,0,0,0,-0.0594,-0.0638,-0.0654,-0.0708,-0.0745,-0.0803,-0.0825,-0.0835,-0.0791,-0.0788,-0.0689,-0.0658,-0.048,-0.0604,-0.0309,-0.0275,-0.0256,-0.0063,-0.0059,-0.0068,-0.0077,-0.0085,-0.0152,0,0,0,0,0]}]]